KG4IFE-13 Weather Reports


time (UTC)temp
C
wind
direction
speed
KPH
gust
KPH
rain 1hr
cm
rain 24hr
cm
rain mn
cm
humidity
%
barometer
mb
20260502170211 16 108 1.6 3.2 0.00 0.00 0.00 43 1013.8
20260502164208 16 318 1.6 6.4 0.00 0.00 0.00 45 1014.2
20260502163706 15 270 1.6 6.4 0.00 0.00 0.00 49 1014.3
20260502163206 15 270 1.6 6.4 0.00 0.00 0.00 49 1014.3
20260502162716 14 21 3.2 8.0 0.00 0.00 0.00 49 1014.5
20260502162216 14 21 3.2 8.0 0.00 0.00 0.00 49 1014.5
20260502161703 13 336 1.6 3.2 0.00 0.00 0.00 50 1014.6
20260502161202 13 336 1.6 3.2 0.00 0.00 0.00 50 1014.6
20260502160701 12 339 1.6 4.8 0.00 0.00 0.00 50 1014.8
20260502160201 12 339 1.6 4.8 0.00 0.00 0.00 50 1014.8
20260502152152 11 330 1.6 3.2 0.00 0.00 0.00 53 1014.8
20260502151651 10 6 1.6 6.4 0.00 0.00 0.00 53 1014.8
20260502151151 10 6 1.6 6.4 0.00 0.00 0.00 53 1014.8
20260502150720 10 338 1.6 4.8 0.00 0.00 0.00 54 1014.8
20260502150150 10 338 1.6 4.8 0.00 0.00 0.00 54 1014.8
20260502130645 8 322 1.6 3.2 0.00 0.00 0.00 59 1014.8
20260502130135 8 322 1.6 3.2 0.00 0.00 0.00 59 1014.8
20260502123622 8 323 1.6 3.2 0.00 0.00 0.00 59 1014.7
20260502123119 8 323 1.6 3.2 0.00 0.00 0.00 59 1014.7
20260502122649 8 324 1.6 3.2 0.00 0.00 0.00 59 1014.6
20260502122117 8 324 1.6 3.2 0.00 0.00 0.00 59 1014.6
20260502121615 8 320 1.6 3.2 0.00 0.00 0.00 59 1014.6
20260502121125 8 320 1.6 3.2 0.00 0.00 0.00 59 1014.6
20260502120634 8 330 1.6 4.8 0.00 0.00 0.00 58 1014.4
20260502120111 8 330 1.6 4.8 0.00 0.00 0.00 58 1014.4
20260502115623 8 332 1.6 3.2 0.00 0.00 0.00 57 1014.4
20260502115111 8 332 1.6 3.2 0.00 0.00 0.00 57 1014.4
20260502114619 8 325 1.6 3.2 0.00 0.00 0.00 56 1014.2
20260502114120 8 325 1.6 3.2 0.00 0.00 0.00 56 1014.2
20260502113628 8 315 1.6 3.2 0.00 0.00 0.00 56 1014.2
20260502113108 8 315 1.6 3.2 0.00 0.00 0.00 56 1014.2
20260502112616 8 329 1.6 3.2 0.00 0.00 0.00 55 1014.1
20260502112105 8 329 1.6 3.2 0.00 0.00 0.00 55 1014.1
20260502111604 8 323 1.6 3.2 0.00 0.00 0.00 55 1014.2
20260502111104 8 323 1.6 3.2 0.00 0.00 0.00 55 1014.2
20260502110601 8 315 1.6 3.2 0.00 0.00 0.00 55 1014.0
20260502110130 8 315 1.6 3.2 0.00 0.00 0.00 55 1014.0
20260502105559 8 315 1.6 3.2 0.00 0.00 0.00 55 1014.1
20260502105129 8 315 1.6 3.2 0.00 0.00 0.00 55 1014.1
20260502104558 9 323 1.6 4.8 0.00 0.00 0.00 55 1014.1
20260502104056 9 323 1.6 4.8 0.00 0.00 0.00 55 1014.1
20260502103556 9 315 1.6 3.2 0.00 0.00 0.00 55 1014.3
20260502103106 9 315 1.6 3.2 0.00 0.00 0.00 55 1014.3
20260502102604 9 320 1.6 3.2 0.00 0.00 0.00 56 1014.2
20260502102053 9 320 1.6 3.2 0.00 0.00 0.00 56 1014.2
20260502101551 9 315 1.6 1.6 0.00 0.00 0.00 56 1014.3
20260502101052 9 315 1.6 1.6 0.00 0.00 0.00 56 1014.3
20260502100550 9 315 1.6 3.2 0.00 0.00 0.00 57 1014.2
20260502091038 10 336 1.6 1.6 0.00 0.00 0.00 60 1014.2
20260502090538 10 270 1.6 4.8 0.00 0.00 0.00 62 1014.1
20260502071516 10 329 1.6 6.4 0.00 0.00 0.00 67 1013.7
20260502071014 10 315 1.6 3.2 0.00 0.00 0.00 66 1013.7
20260502070515 10 315 1.6 3.2 0.00 0.00 0.00 66 1013.7
20260502070015 10 315 1.6 4.8 0.00 0.00 0.00 66 1013.8
20260502065512 10 315 1.6 4.8 0.00 0.00 0.00 66 1013.8
20260502065009 11 315 1.6 3.2 0.00 0.00 0.00 65 1013.8
20260502064509 11 315 1.6 3.2 0.00 0.00 0.00 65 1013.8
20260502064010 11 335 1.6 6.4 0.00 0.00 0.00 65 1013.9
20260502063510 11 335 1.6 6.4 0.00 0.00 0.00 65 1013.9
20260502063009 11 326 1.6 6.4 0.00 0.00 0.00 64 1014.0
20260502062525 11 326 1.6 6.4 0.00 0.00 0.00 64 1014.0
20260502062004 11 315 1.6 4.8 0.00 0.00 0.00 64 1014.0
20260502061536 11 315 1.6 4.8 0.00 0.00 0.00 64 1014.0
20260502061002 11 344 1.6 6.4 0.00 0.00 0.00 64 1014.1
20260502060523 11 344 1.6 6.4 0.00 0.00 0.00 64 1014.1
20260502060000 11 329 1.6 6.4 0.00 0.00 0.00 63 1014.1
20260502055458 11 329 1.6 6.4 0.00 0.00 0.00 63 1014.1
20260502054958 11 331 1.6 6.4 0.00 0.00 0.00 63 1013.9
20260502053958 11 319 1.6 4.8 0.00 0.00 0.00 63 1014.0
20260502053015 12 325 1.6 8.0 0.00 0.00 0.00 63 1013.9
20260502052534 12 325 1.6 8.0 0.00 0.00 0.00 63 1013.9
20260502052013 12 329 1.6 6.4 0.00 0.00 0.00 63 1013.9
20260502051451 12 329 1.6 6.4 0.00 0.00 0.00 63 1013.9
20260502050952 12 336 1.6 6.4 0.00 0.00 0.00 64 1013.9
20260502050452 12 336 1.6 6.4 0.00 0.00 0.00 64 1013.9
20260502045507 12 331 1.6 6.4 0.00 0.00 0.00 65 1014.0
20260502045007 12 322 1.6 6.4 0.00 0.00 0.00 65 1014.0
20260502044507 12 322 1.6 6.4 0.00 0.00 0.00 65 1014.0
20260502044045 12 333 1.6 1.6 0.00 0.00 0.00 65 1013.9
20260502043443 12 333 1.6 1.6 0.00 0.00 0.00 65 1013.9
20260502043002 12 334 1.6 4.8 0.00 0.00 0.00 65 1013.8
20260502042501 12 334 1.6 4.8 0.00 0.00 0.00 65 1013.8
20260502041940 13 315 1.6 4.8 0.00 0.00 0.00 64 1013.8
20260502041438 13 315 1.6 4.8 0.00 0.00 0.00 64 1013.8
20260502040941 13 324 1.6 3.2 0.00 0.00 0.00 64 1013.8
20260502040437 13 324 1.6 3.2 0.00 0.00 0.00 64 1013.8
20260502035937 13 320 1.6 3.2 0.00 0.00 0.00 63 1013.8
20260502035435 13 320 1.6 3.2 0.00 0.00 0.00 63 1013.8
20260502034945 13 330 1.6 3.2 0.00 0.00 0.00 62 1013.8
20260502034454 13 330 1.6 3.2 0.00 0.00 0.00 62 1013.8
20260502033944 13 306 1.6 1.6 0.00 0.00 0.00 61 1013.6
20260502033432 13 306 1.6 1.6 0.00 0.00 0.00 61 1013.6
20260502032930 14 270 1.6 1.6 0.00 0.00 0.00 60 1013.3
20260502032429 14 270 1.6 1.6 0.00 0.00 0.00 60 1013.3
20260502031939 14 315 1.6 3.2 0.00 0.00 0.00 59 1013.1
20260502031427 14 315 1.6 3.2 0.00 0.00 0.00 59 1013.1
20260502030926 15 322 1.6 1.6 0.00 0.00 0.00 60 1013.0
20260502030424 15 322 1.6 1.6 0.00 0.00 0.00 60 1013.0
20260502025945 15 315 1.6 1.6 0.00 0.00 0.00 59 1013.1
20260502025423 15 315 1.6 1.6 0.00 0.00 0.00 59 1013.1
20260502024933 15 329 1.6 3.2 0.00 0.00 0.00 58 1012.9
20260502024420 15 329 1.6 3.2 0.00 0.00 0.00 58 1012.9
20260502023920 15 327 1.6 4.8 0.00 0.00 0.00 58 1012.6
20260502023419 15 327 1.6 4.8 0.00 0.00 0.00 58 1012.6
20260502022940 15 320 1.6 4.8 0.00 0.00 0.00 61 1012.3
20260502022417 15 320 1.6 4.8 0.00 0.00 0.00 61 1012.3
20260502021926 15 216 1.6 3.2 0.00 0.00 0.00 62 1011.9
20260502021415 15 216 1.6 3.2 0.00 0.00 0.00 62 1011.9
20260502020914 15 353 1.6 1.6 0.00 0.00 0.00 61 1011.8
20260502020414 15 353 1.6 1.6 0.00 0.00 0.00 61 1011.8
20260502015912 15 5 1.6 3.2 0.00 0.00 0.00 61 1011.7
20260502015412 15 5 1.6 3.2 0.00 0.00 0.00 61 1011.7
20260502014909 15 270 1.6 1.6 0.00 0.00 0.00 59 1011.7
20260502014409 15 270 1.6 1.6 0.00 0.00 0.00 59 1011.7
20260502013908 15 188 3.2 9.7 0.00 0.00 0.00 60 1011.6
20260502013407 15 188 3.2 9.7 0.00 0.00 0.00 60 1011.6
20260502012906 15 175 4.8 9.7 0.00 0.00 0.00 59 1011.4
20260502012405 15 175 4.8 9.7 0.00 0.00 0.00 59 1011.4
20260502011904 15 202 1.6 6.4 0.00 0.00 0.00 58 1011.3
20260502011404 15 202 1.6 6.4 0.00 0.00 0.00 58 1011.3
20260502010902 16 197 1.6 6.4 0.00 0.00 0.00 57 1011.2
20260502010401 16 197 1.6 6.4 0.00 0.00 0.00 57 1011.2
20260502005920 16 164 6.4 17.7 0.00 0.00 0.00 57 1011.0
20260502005400 16 164 6.4 17.7 0.00 0.00 0.00 57 1011.0
20260502004858 15 216 1.6 3.2 0.00 0.00 0.00 58 1010.9
20260502004358 15 216 1.6 3.2 0.00 0.00 0.00 58 1010.9
20260502003907 16 270 1.6 1.6 0.00 0.00 0.00 57 1010.8
20260502003355 16 270 1.6 1.6 0.00 0.00 0.00 57 1010.8
20260502002905 16 8 1.6 6.4 0.00 0.00 0.00 57 1010.3
20260502002403 16 8 1.6 6.4 0.00 0.00 0.00 57 1010.3
20260502001852 16 181 1.6 6.4 0.00 0.00 0.00 56 1010.1
20260502001350 16 181 1.6 6.4 0.00 0.00 0.00 56 1010.1
20260502000849 16 183 6.4 14.5 0.00 0.00 0.00 55 1009.8
20260502000350 16 183 6.4 14.5 0.00 0.00 0.00 55 1009.8
20260501235848 16 173 6.4 16.1 0.00 0.00 0.00 55 1009.6
20260501235428 16 173 6.4 16.1 0.00 0.00 0.00 55 1009.6
20260501234846 16 181 6.4 22.5 0.00 0.00 0.00 54 1009.8
20260501234345 16 181 6.4 22.5 0.00 0.00 0.00 54 1009.8
20260501233905 16 171 6.4 17.7 0.00 0.00 0.00 54 1009.8
20260501233343 16 171 6.4 17.7 0.00 0.00 0.00 54 1009.8
20260501232852 17 177 6.4 17.7 0.00 0.00 0.00 54 1009.8
20260501232341 17 177 6.4 17.7 0.00 0.00 0.00 54 1009.8
20260501231843 17 173 3.2 11.3 0.00 0.00 0.00 53 1009.9
20260501231338 17 173 3.2 11.3 0.00 0.00 0.00 53 1009.9
20260501230839 17 176 6.4 14.5 0.00 0.00 0.00 52 1009.9
20260501230338 17 176 6.4 14.5 0.00 0.00 0.00 52 1009.9
20260501225855 17 190 6.4 14.5 0.00 0.00 0.00 52 1009.9
20260501225345 17 190 6.4 14.5 0.00 0.00 0.00 52 1009.9
20260501224915 18 161 6.4 14.5 0.00 0.00 0.00 52 1009.8
20260501224404 18 161 6.4 14.5 0.00 0.00 0.00 52 1009.8
20260501223833 18 173 6.4 12.9 0.00 0.00 0.00 51 1009.9
20260501223331 18 173 6.4 12.9 0.00 0.00 0.00 51 1009.9
20260501222830 18 172 6.4 12.9 0.00 0.00 0.00 50 1010.0
20260501222340 18 172 6.4 12.9 0.00 0.00 0.00 50 1010.0
20260501221849 18 174 6.4 17.7 0.00 0.00 0.00 50 1010.0
20260501221327 18 174 6.4 17.7 0.00 0.00 0.00 50 1010.0
20260501220848 18 175 4.8 11.3 0.00 0.00 0.00 51 1010.1
20260501220338 18 175 4.8 11.3 0.00 0.00 0.00 51 1010.1
20260501215825 18 191 6.4 16.1 0.00 0.00 0.00 49 1010.2
20260501215324 18 191 6.4 16.1 0.00 0.00 0.00 49 1010.2
20260501214821 18 163 6.4 16.1 0.00 0.00 0.00 49 1010.2
20260501214322 18 163 6.4 16.1 0.00 0.00 0.00 49 1010.2
20260501213820 18 178 4.8 11.3 0.00 0.00 0.00 50 1010.3
20260501213321 18 178 4.8 11.3 0.00 0.00 0.00 50 1010.3
20260501212838 18 180 6.4 16.1 0.00 0.00 0.00 49 1010.4
20260501212319 18 180 6.4 16.1 0.00 0.00 0.00 49 1010.4
20260501211816 18 171 6.4 17.7 0.00 0.00 0.00 49 1010.4
20260501211315 18 171 6.4 17.7 0.00 0.00 0.00 49 1010.4
20260501210815 18 178 6.4 22.5 0.00 0.00 0.00 48 1010.5
20260501210333 18 178 6.4 22.5 0.00 0.00 0.00 48 1010.5
20260501205814 19 180 9.7 20.9 0.00 0.00 0.00 46 1010.6
20260501205312 19 180 9.7 20.9 0.00 0.00 0.00 46 1010.6
20260501204830 19 171 6.4 19.3 0.00 0.00 0.00 46 1010.8
20260501204310 19 171 6.4 19.3 0.00 0.00 0.00 46 1010.8
20260501203829 19 182 8.0 24.1 0.00 0.00 0.00 46 1010.9
20260501203308 19 182 8.0 24.1 0.00 0.00 0.00 46 1010.9
20260501202848 19 188 6.4 17.7 0.00 0.00 0.00 46 1011.1
20260501202306 19 188 6.4 17.7 0.00 0.00 0.00 46 1011.1
20260501201826 19 168 8.0 17.7 0.00 0.00 0.00 46 1011.3
20260501201314 19 168 8.0 17.7 0.00 0.00 0.00 46 1011.3
20260501200823 19 183 4.8 17.7 0.00 0.00 0.00 47 1011.4
20260501200302 19 183 4.8 17.7 0.00 0.00 0.00 47 1011.4
20260501195801 19 193 6.4 12.9 0.00 0.00 0.00 47 1011.7
20260501195259 19 193 6.4 12.9 0.00 0.00 0.00 47 1011.7
20260501194809 19 181 6.4 17.7 0.00 0.00 0.00 45 1011.9
20260501194318 19 181 6.4 17.7 0.00 0.00 0.00 45 1011.9
20260501193756 19 174 6.4 17.7 0.00 0.00 0.00 46 1011.9
20260501193257 19 174 6.4 17.7 0.00 0.00 0.00 46 1011.9
20260501192755 19 169 6.4 12.9 0.00 0.00 0.00 48 1012.2
20260501192255 19 169 6.4 12.9 0.00 0.00 0.00 48 1012.2
20260501191753 18 171 6.4 14.5 0.00 0.00 0.00 47 1012.4
20260501191251 18 171 6.4 14.5 0.00 0.00 0.00 47 1012.4
20260501190752 18 171 6.4 14.5 0.00 0.00 0.00 47 1012.4
20260501190310 18 174 6.4 17.7 0.00 0.00 0.00 45 1012.4
20260501185749 18 182 6.4 19.3 0.00 0.00 0.00 46 1012.6
20260501185246 18 182 6.4 19.3 0.00 0.00 0.00 46 1012.6
20260501184746 18 185 6.4 19.3 0.00 0.00 0.00 46 1012.7
20260501184247 18 185 6.4 19.3 0.00 0.00 0.00 46 1012.7
20260501183743 18 155 6.4 19.3 0.00 0.00 0.00 48 1013.0
20260501183243 18 155 6.4 19.3 0.00 0.00 0.00 48 1013.0
20260501182743 18 178 6.4 11.3 0.00 0.00 0.00 48 1013.2
20260501182242 18 178 6.4 11.3 0.00 0.00 0.00 48 1013.2
20260501181740 18 166 4.8 11.3 0.00 0.00 0.00 47 1013.3
20260501181259 18 166 4.8 11.3 0.00 0.00 0.00 47 1013.3
20260501180739 18 166 4.8 11.3 0.00 0.00 0.00 47 1013.3
20260501180258 18 191 6.4 11.3 0.00 0.00 0.00 47 1013.7
20260501175756 18 191 6.4 11.3 0.00 0.00 0.00 47 1013.7
20260501175235 18 172 4.8 12.9 0.00 0.00 0.00 47 1013.7
20260501174744 18 172 4.8 12.9 0.00 0.00 0.00 47 1013.7
20260501174232 18 178 6.4 11.3 0.00 0.00 0.00 47 1013.9
20260501173731 18 178 6.4 11.3 0.00 0.00 0.00 47 1013.9
20260501173232 18 90 3.2 11.3 0.00 0.00 0.00 50 1014.0
20260501172730 18 90 3.2 11.3 0.00 0.00 0.00 50 1014.0